Weather History for Grants-Milan, NM

Change the Weather History Date:

Wednesday, March 20, 2013

  Actual Average Record
Temperature  
Mean Temperature 40 °F -  
Max Temperature 62 °F 59 °F 78 °F (1997)
Min Temperature 19 °F 23 °F 7 °F (1965)
Degree Days  
Heating Degree Days 24    
Moisture  
Dew Point 16 °F    
Average Humidity 38    
Maximum Humidity 64    
Minimum Humidity 18    
Precipitation  
Precipitation 0.00 in - - ()
Sea Level Pressure  
Sea Level Pressure 30.16 in    
Wind  
Wind Speed 6 mph (West)    
Max Wind Speed 15 mph    
Max Gust Speed 22 mph    
Visibility 10 miles    
Events      
Averages and records for this station are not official NWS values.
T = Trace of Precipitation, MM = Missing Value Source: NWS Daily Summary

Daily Weather History Graph

Daily Weather History Graph

Search for Another Location

Airport:

Trip Planner

Search our weather history database for the weather conditions in past years. The results will help you decide how hot, cold, wet, or windy it might be!

Date:

Astronomy

Mar. 20, 2013 Rise Set
Actual Time 7:14 AM MDT 7:23 PM MDT
Civil Twilight 6:49 AM MDT 7:48 PM MDT
Nautical Twilight 6:19 AM MDT 8:18 PM MDT
Astronomical Twilight 5:50 AM MDT 8:48 PM MDT
Moon 1:13 PM MDT (3/20) 2:44 AM MDT (3/20)
Length of Visible Light 12h 59m
Length of Day
12h 08m
First Quarter, 60% of the Moon is Illuminated
Mar 20
First Quarter
Mar 27
Full
Apr 2
Last Quarter
Apr 10
New
Apr 18
First Quarter

Hourly Weather History & Observations

Time (MDT) Temp. Windchill Dew Point Humidity Pressure Visibility Wind Dir Wind Speed Gust Speed Precip Events Conditions
12:15 AM 32.2 °F - 15.6 °F 51% 30.28 in 10.0 mi Calm Calm - N/A   Clear
12:35 AM 31.1 °F 26.4 °F 15.3 °F 52% 30.27 in 10.0 mi NNW 4.6 mph - N/A   Clear
12:55 AM 26.2 °F 22.1 °F 13.8 °F 59% 30.27 in 10.0 mi WNW 3.5 mph - N/A   Clear
1:15 AM 26.4 °F 19.8 °F 13.3 °F 58% 30.26 in 10.0 mi NW 5.8 mph - N/A   Clear
1:35 AM 28.9 °F 21.1 °F 13.5 °F 52% 30.27 in 10.0 mi NW 8.1 mph - N/A   Clear
1:55 AM 30.0 °F 20.0 °F 14.2 °F 52% 30.27 in 10.0 mi NW 12.7 mph - N/A   Clear
2:15 AM 28.4 °F - 14.2 °F 55% 30.27 in 10.0 mi Calm Calm - N/A   Clear
2:35 AM 27.5 °F 21.1 °F 12.7 °F 54% 30.27 in 10.0 mi NW 5.8 mph - N/A   Clear
2:55 AM 25.9 °F 19.2 °F 10.0 °F 51% 30.27 in 10.0 mi NW 5.8 mph - N/A   Clear
3:15 AM 21.9 °F 12.5 °F 9.9 °F 60% 30.26 in 10.0 mi NNW 8.1 mph - N/A   Clear
3:35 AM 23.0 °F 17.0 °F 10.2 °F 58% 30.26 in 10.0 mi NNW 4.6 mph - N/A   Clear
3:55 AM 23.9 °F 18.0 °F 10.2 °F 56% 30.25 in 10.0 mi NW 4.6 mph - N/A   Clear
4:15 AM 25.7 °F 17.1 °F 12.2 °F 57% 30.24 in 10.0 mi WNW 8.1 mph - N/A   Clear
4:35 AM 26.1 °F 21.9 °F 12.7 °F 57% 30.26 in 10.0 mi NNW 3.5 mph - N/A   Clear
4:55 AM 22.3 °F 17.6 °F 9.5 °F 58% 30.26 in 10.0 mi North 3.5 mph - N/A   Clear
5:15 AM 21.6 °F 15.3 °F 10.9 °F 64% 30.26 in 10.0 mi NNW 4.6 mph - N/A   Clear
5:35 AM 20.8 °F 12.1 °F 9.7 °F 62% 30.26 in 10.0 mi NW 6.9 mph - N/A   Clear
5:55 AM 21.6 °F 14.0 °F 10.4 °F 62% 30.27 in 10.0 mi WNW 5.8 mph - N/A   Clear
6:15 AM 21.0 °F 12.4 °F 9.7 °F 62% 30.27 in 10.0 mi NW 6.9 mph - N/A   Clear
6:35 AM 19.2 °F 12.5 °F 8.4 °F 63% 30.28 in 10.0 mi NW 4.6 mph - N/A   Clear
6:55 AM 21.4 °F 15.1 °F 10.8 °F 64% 30.27 in 10.0 mi WNW 4.6 mph - N/A   Clear
7:15 AM 22.5 °F 16.3 °F 11.8 °F 64% 30.28 in 10.0 mi WNW 4.6 mph - N/A   Clear
7:35 AM 20.5 °F 14.0 °F 9.1 °F 62% 30.28 in 10.0 mi NW 4.6 mph - N/A   Clear
7:55 AM 21.7 °F - 9.1 °F 58% 30.29 in 10.0 mi Calm Calm - N/A   Clear
8:15 AM 25.9 °F - 11.8 °F 55% 30.28 in 10.0 mi Calm Calm - N/A   Clear
8:35 AM 28.8 °F - 12.9 °F 52% 30.27 in 10.0 mi Calm Calm - N/A   Clear
8:55 AM 32.0 °F 27.5 °F 14.5 °F 49% 30.27 in 10.0 mi WNW 4.6 mph - N/A   Clear
9:15 AM 34.0 °F - 14.7 °F 45% 30.27 in 10.0 mi Calm Calm - N/A   Clear
9:35 AM 39.0 °F 36.8 °F 17.6 °F 42% 30.27 in 10.0 mi SSE 3.5 mph - N/A   Clear
9:55 AM 42.8 °F 39.3 °F 17.4 °F 36% 30.26 in 10.0 mi ESE 5.8 mph - N/A   Clear
10:15 AM 45.1 °F 39.5 °F 18.3 °F 34% 30.26 in 10.0 mi SE 11.5 mph - N/A   Clear
10:35 AM 47.5 °F - 19.0 °F 32% 30.26 in 10.0 mi SE 11.5 mph - N/A   Clear
10:55 AM 49.5 °F - 19.4 °F 31% 30.24 in 10.0 mi SE 10.4 mph - N/A   Clear
11:15 AM 51.1 °F - 19.0 °F 28% 30.23 in 10.0 mi SE 10.4 mph - N/A   Clear
11:35 AM 52.3 °F - 18.9 °F 27% 30.21 in 10.0 mi SE 12.7 mph - N/A   Clear
11:55 AM 54.0 °F - 19.2 °F 26% 30.20 in 10.0 mi SE 11.5 mph - N/A   Clear
12:15 PM 55.2 °F - 18.9 °F 24% 30.19 in 10.0 mi ESE 11.5 mph - N/A   Clear
12:35 PM 56.5 °F - 19.0 °F 23% 30.18 in 10.0 mi SE 11.5 mph 18.4 mph N/A   Clear
12:55 PM 58.1 °F - 18.5 °F 21% 30.15 in 10.0 mi SE 12.7 mph - N/A   Clear
1:15 PM 58.1 °F - 18.7 °F 22% 30.14 in 10.0 mi SE 11.5 mph - N/A   Scattered Clouds
1:35 PM 59.0 °F - 18.5 °F 21% 30.12 in 10.0 mi ESE 12.7 mph 20.7 mph N/A   Scattered Clouds
1:55 PM 59.2 °F - 18.5 °F 21% 30.11 in 10.0 mi SE 12.7 mph 19.6 mph N/A   Clear
2:15 PM 60.3 °F - 18.3 °F 20% 30.10 in 10.0 mi SSE 15.0 mph 20.7 mph N/A   Clear
2:35 PM 60.3 °F - 18.1 °F 20% 30.08 in 10.0 mi ESE 8.1 mph 21.9 mph N/A   Clear
2:55 PM 60.4 °F - 17.6 °F 19% 30.07 in 10.0 mi East 9.2 mph 18.4 mph N/A   Clear
3:15 PM 60.3 °F - 17.6 °F 19% 30.07 in 10.0 mi ESE 10.4 mph 17.3 mph N/A   Clear
3:35 PM 60.8 °F - 17.6 °F 19% 30.06 in 10.0 mi SE 5.8 mph 9.2 mph N/A   Clear
3:55 PM 60.4 °F - 17.4 °F 19% 30.06 in 10.0 mi SE 9.2 mph - N/A   Clear
4:15 PM 60.8 °F - 17.4 °F 19% 30.04 in 10.0 mi South 8.1 mph - N/A   Clear
4:35 PM 61.0 °F - 17.6 °F 19% 30.04 in 10.0 mi SE 4.6 mph - N/A   Clear
5:15 PM 62.1 °F - 17.1 °F 18% 30.03 in 10.0 mi West 10.4 mph - N/A   Scattered Clouds
5:35 PM 61.7 °F - 18.9 °F 19% 30.02 in 10.0 mi West 11.5 mph - N/A   Mostly Cloudy
5:55 PM 61.3 °F - 19.8 °F 20% 30.02 in 10.0 mi West 8.1 mph 16.1 mph N/A   Overcast
6:15 PM 60.8 °F - 19.9 °F 21% 30.01 in 10.0 mi West 12.7 mph 18.4 mph N/A   Overcast
6:35 PM 59.9 °F - 19.6 °F 21% 30.02 in 10.0 mi West 9.2 mph - N/A   Overcast
6:55 PM 59.4 °F - 19.9 °F 22% 30.01 in 10.0 mi West 8.1 mph - N/A   Mostly Cloudy
7:15 PM 57.7 °F - 19.9 °F 23% 30.01 in 10.0 mi WNW 3.5 mph - N/A   Scattered Clouds
7:35 PM 55.9 °F - 19.9 °F 25% 30.01 in 10.0 mi West 3.5 mph - N/A   Scattered Clouds
7:55 PM 53.6 °F - 19.8 °F 27% 30.01 in 10.0 mi WSW 3.5 mph - N/A   Mostly Cloudy
8:15 PM 53.2 °F - 20.3 °F 28% 30.01 in 10.0 mi West 5.8 mph - N/A   Overcast
8:35 PM 56.3 °F - 21.2 °F 26% 30.01 in 10.0 mi West 3.5 mph - N/A   Overcast
8:55 PM 56.5 °F - 21.0 °F 25% 30.01 in 10.0 mi West 3.5 mph - N/A   Overcast
9:15 PM 56.3 °F - 21.6 °F 26% 30.01 in 10.0 mi West 5.8 mph - N/A   Overcast
9:35 PM 55.8 °F - 21.9 °F 27% 30.01 in 10.0 mi West 4.6 mph - N/A   Overcast
9:55 PM 53.2 °F - 21.9 °F 29% 30.01 in 10.0 mi West 3.5 mph - N/A   Overcast
10:15 PM 54.7 °F - 22.5 °F 29% 30.00 in 10.0 mi West 5.8 mph - N/A   Mostly Cloudy
10:35 PM 54.9 °F - 23.2 °F 29% 30.01 in 10.0 mi West 11.5 mph - N/A   Mostly Cloudy
10:55 PM 54.0 °F - 23.9 °F 31% 30.00 in 10.0 mi West 6.9 mph - N/A   Scattered Clouds
11:15 PM 53.8 °F - 23.9 °F 31% 30.00 in 10.0 mi West 4.6 mph - N/A   Mostly Cloudy
11:35 PM 54.0 °F - 23.9 °F 31% 29.99 in 10.0 mi NW 10.4 mph 18.4 mph N/A   Scattered Clouds